User: anonymous   Login
Location: Unspecified
(0.0000°N, 0.0000°E)
Time: 13:34:44
(UTC+00:00)
Language:

Gonets-D1 - Orbit

View from above orbital plane
View from above orbital plane
View from above satellite
View from above satellite

Ground track
Ground track

The orbit data is extracted from the following two-line orbital elements,

1 24726U 97006B   19083.60820423 +.00000015 +00000-0 +24373-4 0  9998
2 24726 082.5997 141.3159 0004154 321.9835 038.0962 12.61339904017523
Epoch (UTC): 24 March 2019 14:35:48
Eccentricity: 0.0004154
inclination: 82.5997°
perigee height: 1414 km
apogee height: 1420 km
right ascension of ascending node: 141.3159°
argument of perigee: 321.9835°
revolutions per day: 12.61339904
mean anomaly at epoch: 38.0962°
orbit number at epoch: 1752

The dashed part of the orbit path shows where the satellite is in the earth's shadow,  

DLR